TimePDT,TemperatureF,Dew PointF,Humidity,Sea Level PressureIn,VisibilityMPH,Wind Direction,Wind SpeedMPH,Gust SpeedMPH,PrecipitationIn,Events,Conditions,WindDirDegrees,DateUTC
12:53 AM,36.0,33.1,89,30.14,10.0,WNW,6.9,-,N/A,,Clear,290,2013-06-22 07:53:00
1:53 AM,36.0,34.0,93,30.13,10.0,West,11.5,-,N/A,,Clear,270,2013-06-22 08:53:00
2:53 AM,35.1,33.1,92,30.14,10.0,West,8.1,-,N/A,,Clear,270,2013-06-22 09:53:00
3:53 AM,34.0,32.0,92,30.14,10.0,SW,3.5,-,N/A,,Clear,230,2013-06-22 10:53:00
4:53 AM,34.0,32.0,92,30.13,10.0,West,4.6,-,N/A,,Clear,280,2013-06-22 11:53:00
5:53 AM,33.1,32.0,96,30.15,10.0,NNE,5.8,-,N/A,,Clear,30,2013-06-22 12:53:00
6:21 AM,35.6,33.8,93,30.15,10.0,North,3.5,-,N/A,,Partly Cloudy,10,2013-06-22 13:21:00
6:53 AM,39.0,36.0,89,30.14,10.0,Calm,Calm,-,N/A,,Clear,0,2013-06-22 13:53:00
7:53 AM,46.9,37.9,71,30.13,10.0,Calm,Calm,-,N/A,,Clear,0,2013-06-22 14:53:00
8:53 AM,53.1,39.9,61,30.13,10.0,SE,5.8,-,N/A,,Clear,140,2013-06-22 15:53:00
9:53 AM,55.9,39.0,53,30.12,10.0,Calm,Calm,-,N/A,,Clear,0,2013-06-22 16:53:00
10:53 AM,60.1,39.0,46,30.10,10.0,North,5.8,-,N/A,,Clear,10,2013-06-22 17:53:00
11:53 AM,62.1,36.0,38,30.09,10.0,Variable,4.6,-,N/A,,Clear,0,2013-06-22 18:53:00
12:53 PM,64.9,36.0,34,30.06,10.0,ESE,6.9,-,N/A,,Clear,110,2013-06-22 19:53:00
1:53 PM,68.0,36.0,31,30.04,10.0,WSW,8.1,-,N/A,,Clear,250,2013-06-22 20:53:00
2:53 PM,69.1,37.9,32,30.03,10.0,SW,4.6,-,N/A,,Clear,230,2013-06-22 21:53:00
3:53 PM,70.0,37.0,30,30.00,10.0,SE,10.4,16.1,N/A,,Clear,140,2013-06-22 22:53:00
4:53 PM,69.1,35.1,29,29.98,10.0,Calm,Calm,-,N/A,,Clear,0,2013-06-22 23:53:00
5:53 PM,71.1,34.0,26,29.96,10.0,Calm,Calm,-,N/A,,Clear,0,2013-06-23 00:53:00
6:53 PM,71.1,32.0,24,29.94,10.0,Calm,Calm,-,N/A,,Clear,0,2013-06-23 01:53:00
7:53 PM,70.0,33.1,26,29.91,10.0,NNE,3.5,-,N/A,,Clear,30,2013-06-23 02:53:00
8:53 PM,57.9,35.1,42,29.91,10.0,East,4.6,-,N/A,,Clear,80,2013-06-23 03:53:00
9:53 PM,51.1,36.0,56,29.92,10.0,NNE,4.6,-,N/A,,Clear,30,2013-06-23 04:53:00
10:53 PM,48.0,36.0,63,29.91,10.0,Calm,Calm,-,N/A,,Clear,0,2013-06-23 05:53:00
11:53 PM,46.9,37.0,68,29.90,10.0,Variable,3.5,-,N/A,,Clear,0,2013-06-23 06:53:00